Simultaneous Nadir Overpasses (SNOs) Predictions

Prediction of SNOs between AQUA and METOP-C Satellite Orbit:

Table of predicted SNOs for the next 14.0 days since TLE Epoch: 8/22/2020
Index Date (AQUA) Time (AQUA) Lat,Lon (AQUA) SZA (AQUA ) Date (METOP-C) Time (METOP-C) Lat,Lon (METOP-C) SZA (METOP-C ) Distance(km) Time Diff (sec)
1 08/24/2020 13:33:31 -73.71, 151.17 117.11 08/24/2020 13:32:35 -73.72, 151.09 117.08 2.74 56
2 08/24/2020 14:23:00 73.76, -41.32 62.97 08/24/2020 14:23:14 73.78, -41.43 62.99 3.77 14
3 08/24/2020 15:12:36 -74.32, 125.05 116.42 08/24/2020 15:13:44 -74.33, 127.26 116.49 66.45 68
4 08/27/2020 09:07:46 -73.74,-142.47 116.10 08/27/2020 09:06:55 -73.72,-142.50 116.11 2.89 51
5 08/27/2020 09:57:15 73.80, 25.02 63.99 08/27/2020 09:57:33 73.82, 25.08 64.00 2.68 18
6 08/27/2020 10:46:55 -74.56,-169.08 115.19 08/27/2020 10:48:00 -74.53,-165.82 115.33 96.78 65
7 08/30/2020 04:42:01 -73.73, -76.01 115.12 08/30/2020 04:41:16 -73.71, -76.10 115.12 3.24 45
8 08/30/2020 05:31:30 73.80, 91.47 64.98 08/30/2020 05:31:54 73.81, 91.47 64.99 1.56 24
9 09/02/2020 00:16:17 -73.77, -9.66 114.06 09/02/2020 00:15:36 -73.76, -9.58 114.07 2.97 41
10 09/02/2020 01:05:45 73.80, 157.91 65.99 09/02/2020 01:06:15 73.80, 157.85 65.99 1.94 30
11 09/04/2020 19:50:31 -73.77, 56.78 113.03 09/04/2020 19:49:56 -73.75, 56.82 113.04 2.06 35
12 09/04/2020 20:39:59 73.80,-135.66 67.02 09/04/2020 20:40:35 73.79,-135.77 67.01 3.83 36
